Location: Wolf Lake
(46.8518°N, 80.6381°W)
Time: 11:11:39
(UTC-04:00)

ISS - Pass Details

Date: 19 March 2026
Orbit: 416 x 425 km, 51.6° (Epoch: 19 April)

Event Time Altitude Azimuth Distance (km) Brightness Sun altitude
Rises 21:01:51 0° 284° (WNW) 2,387 2.0 -15.6°
Reaches altitude 10° 21:04:05 10° 294° (WNW) 1,520 0.4 -16.0°
Maximum altitude 21:07:15 35° 2° (N) 709 -2.5 -16.5°
Enters shadow 21:08:37 24° 48° (NE) 915 -2.3 -16.7°
